{"data":{"norad_id":58720,"intl_designator":"2024-002R","name":"STARLINK-31027","alt_names":[],"object_type":"PAYLOAD","status":"ACTIVE","operator":null,"country":"US","launch_date":"2024-01-03","launch_site_code":"AFWTR","launch_vehicle":null,"mission":null,"orbit_class":"UNKNOWN","rcs_meters":null,"size_class":null,"mass_kg":null,"dimensions":null,"purposes":["comms"],"wikipedia_slug":null,"has_3d_model":false,"image_url":null,"decayed_at":null,"tle_current":{"epoch":"2026-09-20T13:12:05.304960Z","epoch_age_seconds":145372,"freshness":"FRESH","line1":"1 58720U 24002R   26263.55006140  .00789490  35029-3  83838-3 0  9992","line2":"2 58720  53.1264 341.3825 0012040 343.9332  16.1319 16.09502058152729","mean_motion":16.09502058,"eccentricity":0.001204,"inclination_deg":53.1264,"raan_deg":341.3825,"arg_perigee_deg":343.9332,"mean_anomaly_deg":16.1319,"bstar":0.00083838,"rev_number":15272,"period_min":89.46866472413,"perigee_km":240.2315081624,"apogee_km":256.18775084625,"semimajor_km":6626.3466295043,"source":"CELESTRAK","updated_at":"2026-09-21T09:00:33.950126Z"}}}